Wind_Speed
23 26 22 22 19 17 14 14 16 17 14 12 7 4 3 2 7 7 4 3 1 3 6 6 10 10 11 13 18 17 15 15 21 22 25 25 19 21 21 17 16 17 17
26 27 24 25 22 19 16 17 14 13 16 12 7 6 5 4 5 6 7 2 6 6 8 10 13 14 16 20 20 19 18 17 21 23 23 21 22 15 13 13 12 13 17
29 26 25 27 23 20 16 15 11 10 10 12 10 8 8 6 5 7 8 8 8 10 10 12 15 19 21 19 20 16 14 16 18 21 21 21 18 23 22 19 19 19 22
30 28 27 27 23 19 15 12 10 9 8 12 8 5 6 7 7 4 3 5 8 11 14 17 20 21 21 20 21 13 17 16 20 20 21 21 21 21 24 23 25 27 24
31 30 29 27 23 19 17 13 11 12 11 8 7 6 7 8 10 10 10 11 12 17 18 19 20 17 20 16 11 14 15 17 22 23 23 21 21 22 21 24 24 24 21
31 31 29 26 23 21 18 15 12 13 12 11 10 8 8 8 6 9 9 12 16 16 19 21 18 20 19 16 13 14 16 18 25 23 21 17 17 20 23 24 22 18 18
33 31 28 25 23 22 19 17 15 15 14 14 11 9 10 10 11 11 12 12 14 17 21 20 21 21 18 14 13 16 20 25 19 14 13 15 19 22 22 22 17 17 17
34 34 30 26 24 22 19 20 17 15 13 12 10 12 11 12 12 13 11 14 16 19 20 20 19 14 12 12 16 23 24 17 12 12 16 18 22 18 16 16 18 19 19
40 37 31 31 27 25 22 20 18 15 11 9 10 9 10 10 9 10 13 15 18 17 18 20 15 9 8 17 22 19 18 16 14 14 16 15 12 12 15 17 18 19 21
42 38 32 28 29 24 20 20 19 14 9 10 8 7 8 9 8 11 13 15 16 13 17 17 11 7 15 18 19 17 18 19 17 13 12 10 12 13 15 16 18 20 21
44 36 31 31 28 23 17 21 18 12 7 11 8 10 12 9 11 14 11 9 11 12 11 11 8 12 17 17 19 18 19 19 15 18 15 12 13 13 15 15 17 20 20
43 37 33 30 23 22 20 20 15 9 12 13 11 9 12 12 13 12 10 9 11 11 8 8 12 16 16 16 17 13 16 16 20 20 17 16 16 15 15 14 16 15 16
42 41 33 29 24 27 24 19 15 13 12 9 14 10 10 8 7 7 10 11 14 13 14 14 15 15 10 12 14 15 14 15 17 20 18 23 17 15 18 16 13 13 13
41 38 30 26 29 26 22 16 15 11 12 12 8 6 7 8 9 10 12 15 15 11 9 3 9 9 9 7 12 16 15 17 16 20 23 16 13 16 18 15 17 16 18
37 31 28 27 28 25 20 14 12 11 8 11 11 9 5 6 6 10 15 9 5 5 4 8 15 5 9 9 16 22 17 17 16 18 16 15 17 19 20 18 19 18 19
36 33 31 29 25 23 18 16 14 9 11 10 7 5 5 5 10 12 5 5 6 8 8 11 13 4 7 12 18 22 19 18 16 17 19 20 21 22 24 23 19 19 21
33 35 32 31 30 22 21 19 16 12 10 7 5 4 3 7 10 12 5 4 7 11 7 8 11 8 11 14 20 19 20 22 20 19 18 20 20 23 24 23 20 20 21
34 32 30 31 27 22 20 17 16 16 14 10 7 4 0 5 6 6 5 5 8 9 7 7 10 15 12 17 21 19 20 21 21 19 19 19 22 24 27 25 19 20 21
38 35 34 30 24 21 20 14 11 12 13 7 4 3 3 4 4 5 7 7 8 8 9 10 12 11 16 12 16 17 18 22 20 19 18 20 27 29 29 23 22 20 19
38 34 31 26 26 23 24 23 17 11 11 8 8 5 5 7 8 6 6 6 6 8 11 12 11 12 13 13 16 20 18 17 20 21 26 30 29 26 25 25 23 20 18
37 31 28 24 25 22 24 25 17 10 13 12 9 3 7 8 5 4 5 8 9 9 11 12 11 12 16 20 23 20 18 22 26 31 33 30 29 27 25 24 20 16 11
34 33 26 25 22 20 26 20 17 17 14 13 6 7 9 5 2 5 6 8 8 8 9 11 11 13 18 22 23 21 23 27 32 33 32 30 29 27 24 19 11 12 16
35 31 24 21 19 26 24 22 18 13 14 12 12 11 6 2 4 7 7 8 8 7 10 12 13 15 19 19 21 23 27 31 30 32 32 30 27 22 14 9 15 16 14
34 28 24 22 29 29 25 20 16 15 14 13 8 4 1 2 4 6 7 8 5 7 11 12 13 16 20 21 24 27 27 27 30 32 31 26 17 11 11 13 15 16 16
32 23 27 31 30 27 22 20 17 15 13 10 7 4 2 2 5 6 5 8 6 6 10 11 13 17 21 23 24 26 28 31 30 30 28 19 14 11 11 16 17 18 18
22 31 30 29 27 24 22 20 16 11 9 6 4 1 4 4 4 8 5 7 8 6 10 12 16 19 22 23 25 28 30 30 29 28 25 20 15 7 12 16 16 19 11
Wind_Direction
204 207 199 195 202 207 204 209 202 213 213 210 215 195 186 307 196 212 193 87 297 311 327 325 327 329 323 324 318 310 311 313 313 318 324 324 329 331 324 305 312 308 311
208 211 198 198 205 212 211 207 214 213 220 222 172 197 201 254 255 199 174 259 241 272 292 296 303 312 309 307 316 304 307 305 311 313 326 329 331 338 329 315 321 309 304
208 207 199 202 207 214 204 206 210 205 197 179 197 223 206 243 273 203 209 231 251 276 292 303 303 304 306 311 308 308 311 300 302 318 320 321 325 321 316 313 306 306 311
208 208 204 205 208 209 211 205 198 185 178 187 210 210 193 231 273 256 270 288 298 292 295 298 300 302 306 304 306 299 307 301 318 316 315 316 314 312 319 321 321 323 317
208 209 210 204 206 205 206 202 197 190 208 221 222 205 216 245 251 249 258 263 281 299 299 308 313 311 312 311 303 295 294 311 321 311 309 314 304 309 320 325 323 323 323
209 213 209 206 204 205 201 200 197 193 199 212 226 235 234 258 262 265 254 267 291 297 308 317 315 319 308 315 285 279 305 313 318 308 315 312 312 322 325 325 327 332 337
211 214 211 209 209 204 197 199 202 198 212 213 219 228 244 249 259 277 287 295 299 310 319 321 318 309 304 287 281 296 308 310 308 315 311 312 312 320 323 320 318 322 320
214 213 214 211 206 202 204 207 207 207 210 220 226 234 246 255 254 265 283 297 306 318 314 318 305 294 289 282 313 319 318 325 299 295 296 305 310 314 316 317 324 323 318
208 209 215 209 200 201 202 208 207 207 210 218 231 247 250 261 251 257 278 291 309 310 312 314 320 282 299 329 338 341 348 350 334 301 298 303 312 314 330 314 322 326 325
207 209 210 208 207 200 199 209 211 211 215 227 235 239 254 251 238 262 282 289 306 316 321 314 315 326 342 346 350 353 343 347 346 346 334 331 328 329 345 324 326 315 314
211 215 210 207 204 200 192 207 215 211 211 225 241 239 251 259 264 276 300 295 296 309 317 324 287 322 338 342 348 347 350 345 352 350 333 332 331 331 324 326 326 319 310
206 209 210 204 200 195 200 207 212 207 216 230 236 239 244 256 267 279 277 281 300 309 310 319 308 323 323 326 344 340 348 343 338 336 340 342 333 331 333 332 331 341 337
207 208 208 202 187 197 202 204 202 215 216 238 236 242 257 250 246 234 257 284 304 299 282 285 289 300 310 321 339 341 335 327 325 334 332 333 338 336 336 338 337 339 335
202 203 197 189 185 197 200 207 209 222 209 202 237 223 210 217 249 253 284 305 314 311 311 332 329 309 324 324 344 334 332 339 345 338 336 337 343 341 347 348 345 345 338
202 197 184 189 196 186 187 196 202 184 207 248 216 208 245 238 244 289 313 332 17 31 21 350 3 259 311 319 340 354 337 333 334 348 351 348 346 339 338 339 340 342 335
198 187 184 178 195 187 188 185 190 206 194 182 226 256 250 258 324 345 2 90 47 31 17 3 358 263 282 334 347 355 358 348 343 346 344 342 337 339 335 330 338 336 336
203 186 183 183 188 191 191 197 181 173 197 207 224 255 298 357 33 48 68 26 6 347 306 0 10 331 335 345 343 347 1 358 346 342 337 338 335 335 334 333 330 328 329
194 191 191 183 185 188 194 201 210 225 237 228 217 226 281 32 46 47 42 37 18 21 49 41 12 7 336 340 344 344 348 352 358 347 340 338 336 330 328 331 330 331 334
193 195 187 182 183 192 187 190 186 200 219 217 182 204 276 341 352 337 337 351 17 41 8 354 349 348 353 355 4 357 349 348 347 338 332 326 326 325 325 328 324 320 324
196 185 174 176 183 187 195 200 198 197 180 174 202 229 338 284 24 62 77 69 46 8 354 351 350 348 346 338 336 334 328 330 326 326 323 320 320 322 323 324 323 319 319
171 168 172 171 188 188 199 192 189 183 198 197 184 46 40 90 83 4 345 340 338 344 346 346 345 338 333 331 327 327 324 325 321 321 321 322 323 324 326 324 324 325 324
164 166 160 186 188 187 185 177 172 168 184 181 164 95 111 104 355 335 329 332 340 346 346 342 343 331 332 328 333 332 325 322 323 325 327 327 325 324 324 326 339 342 335
166 160 177 182 180 165 159 157 152 153 147 132 119 113 106 45 339 336 335 339 355 5 346 342 337 332 326 333 331 328 327 329 334 335 332 330 330 330 336 353 345 335 331
155 176 172 167 155 150 149 146 148 147 139 129 128 110 55 1 335 333 339 343 359 356 346 347 343 329 329 331 329 329 331 334 334 335 336 335 346 1 354 344 340 339 321
170 166 162 155 153 149 144 143 142 139 135 137 135 135 110 315 317 327 336 345 348 351 350 347 331 324 323 325 329 333 335 333 333 336 338 337 334 335 348 350 340 328 325
162 156 150 148 144 144 147 146 144 145 143 150 166 230 302 298 311 336 351 353 345 338 335 328 319 320 326 331 334 335 334 333 334 336 336 331 325 335 358 340 327 337 350
Height
1522 1525 1527 1528 1532 1536 1536 1533 1533 1534 1534 1535 1534 1535 1536 1537 1538 1539 1540 1540 1540 1540 1541 1540 1540 1537 1536 1534 1533 1531 1529 1526 1522 1519 1517 1513 1509 1506 1504 1503 1501 1499 1498
1517 1522 1524 1526 1527 1536 1535 1532 1533 1533 1535 1535 1533 1534 1535 1536 1537 1538 1538 1539 1540 1539 1539 1538 1537 1537 1534 1532 1530 1527 1525 1523 1520 1515 1512 1509 1506 1502 1499 1498 1497 1496 1494
1513 1516 1521 1524 1524 1531 1531 1530 1531 1532 1534 1534 1533 1533 1534 1535 1536 1536 1537 1538 1538 1539 1538 1537 1535 1533 1531 1528 1526 1523 1520 1518 1516 1512 1508 1506 1503 1499 1497 1496 1494 1491 1489
1510 1512 1516 1519 1522 1527 1528 1528 1529 1531 1534 1532 1532 1532 1532 1534 1535 1535 1536 1536 1536 1536 1534 1533 1532 1530 1527 1524 1521 1519 1516 1514 1511 1508 1504 1502 1499 1496 1493 1490 1487 1485 1482
1507 1507 1512 1513 1518 1521 1523 1525 1527 1529 1532 1531 1531 1531 1531 1532 1534 1534 1534 1534 1534 1533 1532 1530 1527 1525 1522 1518 1517 1515 1513 1510 1506 1503 1499 1497 1495 1492 1490 1487 1483 1480 1477
1506 1509 1509 1511 1514 1517 1519 1522 1525 1528 1529 1529 1529 1529 1529 1530 1531 1532 1532 1532 1531 1530 1528 1526 1523 1520 1518 1514 1513 1511 1509 1506 1501 1497 1495 1492 1491 1488 1486 1483 1480 1476 1473
1506 1508 1506 1508 1513 1516 1516 1520 1523 1524 1526 1526 1527 1527 1527 1528 1529 1530 1530 1529 1528 1526 1523 1520 1518 1515 1513 1511 1510 1508 1506 1502 1497 1493 1491 1489 1487 1485 1482 1479 1477 1475 1472
1499 1502 1505 1506 1511 1515 1518 1519 1522 1521 1522 1523 1524 1524 1525 1526 1527 1527 1527 1526 1524 1523 1519 1516 1512 1511 1510 1509 1507 1504 1500 1495 1491 1489 1488 1486 1484 1482 1480 1477 1474 1472 1469
1493 1500 1503 1504 1503 1508 1513 1517 1518 1518 1518 1520 1521 1521 1523 1524 1524 1524 1524 1524 1522 1519 1516 1512 1509 1507 1507 1506 1503 1499 1495 1491 1488 1485 1484 1483 1481 1480 1477 1474 1472 1469 1466
1491 1495 1498 1501 1502 1502 1506 1514 1516 1515 1515 1516 1518 1519 1520 1521 1522 1522 1522 1521 1519 1516 1513 1510 1508 1506 1503 1501 1499 1496 1493 1489 1486 1484 1482 1480 1479 1476 1475 1472 1469 1466 1463
1487 1490 1493 1494 1497 1501 1502 1510 1512 1512 1512 1514 1515 1517 1518 1519 1519 1519 1518 1517 1515 1514 1510 1507 1507 1505 1502 1499 1496 1493 1490 1486 1484 1482 1479 1478 1476 1474 1472 1469 1467 1463 1460
1481 1485 1487 1489 1493 1499 1501 1505 1509 1509 1509 1512 1513 1515 1516 1516 1516 1516 1515 1514 1512 1510 1508 1506 1504 1501 1499 1497 1494 1492 1489 1485 1482 1480 1478 1475 1473 1471 1468 1466 1463 1460 1458
1475 1480 1481 1485 1487 1493 1498 1501 1503 1504 1506 1509 1512 1513 1514 1514 1513 1513 1512 1511 1509 1506 1504 1502 1501 1499 1496 1494 1492 1489 1486 1483 1480 1478 1475 1472 1470 1468 1465 1462 1460 1458 1455
1470 1475 1477 1481 1484 1491 1496 1498 1499 1500 1504 1508 1510 1511 1512 1511 1510 1510 1509 1507 1505 1502 1500 1500 1499 1497 1494 1492 1489 1486 1483 1480 1477 1475 1472 1469 1467 1465 1462 1459 1456 1453 1450
1471 1471 1473 1475 1486 1487 1493 1497 1497 1500 1503 1506 1508 1508 1509 1509 1510 1509 1506 1504 1502 1501 1500 1499 1496 1494 1492 1490 1488 1484 1480 1477 1475 1473 1470 1467 1464 1462 1459 1456 1453 1450 1447
1461 1467 1473 1473 1485 1489 1490 1494 1498 1501 1503 1506 1508 1509 1508 1508 1507 1505 1503 1503 1502 1500 1499 1498 1494 1491 1489 1487 1485 1482 1479 1475 1473 1471 1468 1466 1462 1459 1456 1452 1450 1447 1444
1457 1462 1468 1471 1480 1486 1491 1494 1497 1500 1503 1505 1507 1507 1507 1507 1506 1504 1503 1502 1500 1499 1497 1496 1493 1491 1488 1485 1482 1480 1477 1474 1472 1469 1466 1463 1460 1457 1453 1449 1446 1443 1440
1452 1461 1466 1471 1477 1486 1490 1493 1496 1499 1502 1504 1505 1506 1506 1506 1505 1504 1503 1502 1500 1498 1496 1494 1492 1489 1486 1483 1480 1477 1475 1473 1469 1467 1464 1461 1458 1454 1449 1445 1442 1439 1436
1450 1457 1463 1471 1477 1485 1490 1491 1495 1498 1501 1503 1504 1506 1506 1506 1504 1503 1501 1500 1499 1497 1496 1493 1490 1488 1485 1482 1479 1476 1473 1470 1467 1465 1461 1457 1454 1450 1445 1441 1437 1434 1432
1445 1455 1463 1470 1476 1482 1486 1489 1494 1496 1499 1501 1502 1503 1503 1503 1503 1501 1500 1499 1498 1495 1492 1491 1489 1487 1483 1481 1478 1475 1471 1467 1465 1462 1458 1453 1449 1445 1440 1436 1432 1429 1426
1441 1452 1465 1469 1474 1479 1483 1488 1492 1495 1497 1499 1501 1502 1501 1502 1502 1501 1500 1498 1495 1493 1491 1489 1487 1484 1481 1478 1475 1471 1468 1466 1462 1457 1452 1447 1442 1437 1434 1430 1426 1424 1423
1443 1456 1461 1468 1473 1477 1482 1488 1492 1494 1496 1498 1500 1501 1501 1500 1500 1499 1498 1497 1494 1492 1490 1488 1485 1482 1479 1475 1472 1469 1466 1461 1457 1451 1445 1440 1435 1431 1427 1424 1422 1421 1419
1447 1456 1463 1469 1473 1479 1484 1488 1493 1494 1496 1498 1499 1499 1500 1499 1498 1498 1497 1496 1492 1491 1489 1486 1483 1481 1477 1474 1471 1467 1462 1457 1451 1445 1439 1433 1428 1425 1422 1421 1419 1417 1414
1450 1459 1465 1470 1475 1480 1484 1488 1491 1495 1496 1497 1498 1498 1498 1497 1498 1497 1496 1495 1492 1490 1487 1485 1482 1478 1475 1472 1469 1464 1459 1454 1448 1441 1435 1429 1425 1422 1420 1418 1416 1412 1410
1454 1460 1464 1470 1475 1479 1484 1488 1490 1494 1496 1497 1496 1497 1497 1497 1497 1496 1493 1492 1491 1489 1486 1484 1480 1477 1473 1470 1465 1461 1455 1449 1443 1437 1431 1426 1423 1420 1418 1415 1412 1410 1407
1456 1461 1466 1472 1477 1481 1485 1488 1491 1493 1495 1496 1496 1497 1498 1497 1496 1495 1492 1491 1489 1487 1485 1482 1479 1475 1471 1467 1462 1457 1451 1445 1438 1433 1427 1422 1419 1417 1414 1413 1410 1407 1404